Location: Newark
(53.2933°N, 6.3959°W)
Time: 14:29:32
(UTC+00:00)

Envisat - Pass Details

Date: 21 February 2020
Orbit: 764 x 766 km, 98.1° (Epoch: 07 April)

Event Time Altitude Azimuth Distance (km) Brightness Sun altitude
Rises 06:06:44 0° 22° (NNE) 3,248 6.6 -13.4°
Reaches altitude 10° 06:09:28 10° 36° (NE) 2,316 6.0 -13.0°
Maximum altitude 06:13:38 25° 91° (E) 1,526 5.6 -12.4°
Drops below altitude 10° 06:17:45 10° 146° (SE) 2,301 6.0 -11.8°
Sets 06:20:27 0° 159° (SSE) 3,221 6.6 -11.4°
